Regional Weather Roundup
Issued by NWS

Home | Current Version | Previous Version | Graphics & Text | Print | Product List | Glossary On
Versions: 1 2 3 4 5 6 7 8 9 10 11 12 13 14 15 16 17 18 19 20 21 22 23 24 25 26 27 28 29 30 31 32 33 34 35 36 37 38 39 40 41 42 43 44 45 46 47 48 49 50
000
ASUS45 KCYS 082210
RWRWY

WYOMING REGIONAL WEATHER ROUNDUP
NATIONAL WEATHER SERVICE CHEYENNE WY
300 PM MST MON FEB 08 2016

NOTE:  "FAIR" INDICATES FEW OR NO CLOUDS BELOW 12,000 FEET
WITH NO SIGNIFICANT WEATHER AND/OR OBSTRUCTIONS TO VISIBILITY.

WYZ001-082300-
YELLOWSTONE NATIONAL PARK

CITY           SKY/WX    TMP DP  RH WIND       PRES   REMARKS
LK YELLOWSTONE   N/A     33  20  58 SE3       30.55F
W YELLOWSTONE  NOT AVBL

$$
WYZ002>013-054>058-071-098>099-082300-
NORTHERN WYOMING

CITY           SKY/WX    TMP DP  RH WIND       PRES   REMARKS
JACKSON        SUNNY     30  21  69 CALM      30.57F
CODY           FAIR      50  21  32 NE6       30.37F
GREYBULL       FAIR      44  19  36 S6        30.40F
WORLAND        FAIR      43  18  36 CALM      30.40F
SHERIDAN       FAIR      52  29  41 NW15      30.33S
BUFFALO        FAIR      48  28  46 N22G31    30.32F
GILLETTE       FAIR      45  27  49 NW17      30.29F
HULETT         CLOUDY    41  19  42 NW8       30.29F
NEWCASTLE      FAIR      41  16  36 NW22G30   30.28S

$$
WYZ014>020-022>026-101>103-082300-
CENTRAL WYOMING

CITY           SKY/WX    TMP DP  RH WIND       PRES   REMARKS
BIG PINEY      FAIR      40  25  55 N17G28    30.49F WCI  31
PINEDALE       FAIR      36  25  64 W21G26    30.48S WCI  24
DUBOIS         FAIR      43  18  36 W31G38    30.42F
LANDER         FAIR      31  19  61 N6        30.39S WCI  25
RIVERTON       FAIR      36  21  54 NE6       30.41S WCI  31
CASPER         FAIR      37  23  56 SW17      30.37S WCI  27
DOUGLAS        PTSUNNY   42  26  53 NW24G31     N/A

$$
WYZ021-027>030-104>119-082300-
SOUTHERN WYOMING

CITY           SKY/WX    TMP DP  RH WIND       PRES   REMARKS
EVANSTON       FAIR      33  18  53 CALM      30.58F
KEMMERER       FAIR      32  25  74 W23       30.53F WCI  19
FORT BRIDGER   CLEAR     36  27  69 W21       30.58F WCI  24
ROCK SPRINGS   FAIR      37  26  64 SW20      30.48S WCI  27
DIXON          FAIR      33  20  59 CALM      30.54F
RAWLINS        FAIR      33  22  63 W21       30.43S WCI  21
SARATOGA       FAIR      34  27  75 SW14      30.45F WCI  24
LARAMIE        FAIR      39  25  57 NW22G33   30.34F WCI  29
CHEYENNE       FAIR      42  24  49 NW20G30   30.32R
TORRINGTON     CLOUDY    43  25  49 NW14G21   30.30S
PINE BLUFFS    CLOUDY    41  28  60 NW23G29   30.32R

$$



USA.gov is the U.S. government's official web portal to all federal, state and local government web resources and services.